Вернуться в каталог

STARLINK-32552

АктивенСвязьVLEO
NORAD 62174·PAYLOAD·🇺🇸 United States

Запущен Nov 30, 2024 с Vandenberg Space Force Base

Loading…

Ближайшие Пролёты (ближайшие 24 часа)

TLE

СвежийSource: CelesTrak SupGP

Эпоха: Sep 14, 2026, 21:42 UTC

1 62174C 24225M   26257.90465278  .00044692  00000+0  37466-2 0  2577
2 62174  70.0018  47.2588 0002691 278.8470 331.6136 14.98297112    14

Отслеживайте STARLINK-32552 в реальном времени с AllMySat

Download on the App Store